This is the latest recevied weather packets stored in our database for station/object OK2JCZ-6. If no packets are shown the sender has not sent any weather packets the latest 10 day(s).
| Time | Temp. | Humidity | Pressure | Rain* | Wind** | Luminosity | Snow |
|---|---|---|---|---|---|---|---|
| 1777573777 | 7.22° C | 34% | 1027.2 hPa | 0 mm | - | - | - |
| 1777572577 | 8.33° C | 34% | 1027.1 hPa | 0 mm | - | - | - |
| 1777572277 | 8.33° C | 34% | 1027.1 hPa | 0 mm | - | - | - |
| 1777571377 | 9.44° C | 32% | 1026.9 hPa | 0 mm | - | - | - |
| 1777571077 | 9.44° C | 31% | 1026.8 hPa | 0 mm | - | - | - |
| 1777570777 | 10° C | 31% | 1026.8 hPa | 0 mm | - | - | - |
| 1777570477 | 10° C | 30% | 1026.8 hPa | 0 mm | - | - | - |
| 1777570177 | 10.56° C | 30% | 1026.8 hPa | 0 mm | - | - | - |
| 1777569877 | 10.56° C | 30% | 1026.9 hPa | 0 mm | - | - | - |
| 1777569277 | 10.56° C | 29% | 1026.8 hPa | 0 mm | - | - | - |
| 1777568977 | 11.11° C | 29% | 1026.8 hPa | 0 mm | - | - | - |
| 1777568377 | 11.11° C | 28% | 1026.7 hPa | 0 mm | - | - | - |
| 1777567777 | 11.11° C | 27% | 1026.7 hPa | 0 mm | - | - | - |
| 1777567477 | 11.11° C | 26% | 1026.6 hPa | 0 mm | - | - | - |
| 1777566877 | 11.67° C | 25% | 1026.7 hPa | 0 mm | - | - | - |
| 1777566577 | 11.67° C | 26% | 1026.7 hPa | 0 mm | - | - | - |
| 1777565977 | 11.67° C | 25% | 1026.7 hPa | 0 mm | - | - | - |
| 1777565677 | 11.67° C | 24% | 1026.7 hPa | 0 mm | - | - | - |
| 1777565077 | 11.67° C | 24% | 1026.8 hPa | 0 mm | - | - | - |
| 1777564477 | 12.22° C | 23% | 1026.8 hPa | 0 mm | - | - | - |
| 1777563878 | 12.22° C | 22% | 1026.8 hPa | 0 mm | - | - | - |
| 1777563579 | 12.22° C | 23% | 1026.8 hPa | 0 mm | - | - | - |
| 1777563277 | 12.22° C | 24% | 1026.8 hPa | 0 mm | - | - | - |
| 1777562977 | 12.22° C | 23% | 1026.8 hPa | 0 mm | - | - | - |
| 1777562677 | 12.22° C | 22% | 1026.8 hPa | 0 mm | - | - | - |
* Rain latest hour (hover to see other rain measurements)
** Current wind speed in m/s (hover to see current wind gust speed)